Kingman, Arizona, United States (86401)
Lat: 35.19N, Lon: 114.05W
Wx Zone: AZZ003
Local Info
Past Weather Observations for Thursday, December 18, 2014

NOTE: This archive is for the closest National Weather Service station to Kingman. Information may differ from the station used for current weather conditions.

Click here for Long-term Archive

Time Weather Temperature Dewpoint Humidity Pressure Winds Precip Visibility
23:51
Clear
36°F / 2°C 32°F / 0°C 87% 30.21 in
(1023 mb)
ESE 8.1 mph
(ESE 13 kph)
-
22:51
Clear
36°F / 2°C 32°F / 0°C 87% 30.21 in
(1023 mb)
SE 8.1 mph
(SE 13 kph)
- 10SM
21:51
Clear
37°F / 3°C 34°F / 1°C 87% 30.21 in
(1023 mb)
ESE 8.1 mph
(ESE 13 kph)
-
20:51
Clear
39°F / 4°C 36°F / 2°C 87% 30.21 in
(1023 mb)
E 10.4 mph
(E 17 kph)
-
19:51
Clear
39°F / 4°C 36°F / 2°C 87% 30.21 in
(1023 mb)
ESE 8.1 mph
(ESE 13 kph)
-
18:51
Clear
39°F / 4°C 36°F / 2°C 87% 30.18 in
(1022 mb)
NE 8.1 mph
(NE 13 kph)
- 10SM
17:51
Clear
45°F / 7°C 36°F / 2°C 71% 30.15 in
(1021 mb)
NNE 4.6 mph
(NNE 7 kph)
- 10SM
16:51
Clear
50°F / 10°C 34°F / 1°C 54% 30.15 in
(1021 mb)
N 5.8 mph
(N 9 kph)
- 10SM
15:51
Partly Cloudy
52°F / 11°C 34°F / 1°C 50% 30.12 in
(1020 mb)
Calm - 10SM
14:51
Clear
52°F / 11°C 34°F / 1°C 50% 30.12 in
(1020 mb)
N 5.8 mph
(N 9 kph)
- 10SM
13:51
Mostly Cloudy
52°F / 11°C 36°F / 2°C 54% 30.12 in
(1020 mb)
N 9.2 mph
(N 15 kph)
-
13:43
Mostly Cloudy
52°F / 11°C 37°F / 3°C 58% 30.12 in
(1020 mb)
N 8.1 mph
(N 13 kph)
-
12:51
Overcast
48°F / 9°C 37°F / 3°C 66% 30.15 in
(1021 mb)
N 3.5 mph
(N 6 kph)
- 10SM
12:03
Overcast
46°F / 8°C 39°F / 4°C 76% 30.18 in
(1022 mb)
Variable 3.5 mph
(Variable 6 kph)
- 10SM
11:51
Overcast
46°F / 8°C 37°F / 3°C 71% 30.18 in
(1022 mb)
Calm - 10SM
10:51
Overcast
45°F / 7°C 39°F / 4°C 81% 30.18 in
(1022 mb)
Calm - 10SM
09:51
Overcast
43°F / 6°C 39°F / 4°C 87% 30.18 in
(1022 mb)
NNW 3.5 mph
(NNW 6 kph)
-
09:48
Overcast
43°F / 6°C 39°F / 4°C 87% 30.18 in
(1022 mb)
NNW 3.5 mph
(NNW 6 kph)
- 10SM
08:56
Overcast
43°F / 6°C 37°F / 3°C 81% 30.15 in
(1021 mb)
Calm - 10SM
08:51
Overcast
43°F / 6°C 39°F / 4°C 87% 30.15 in
(1021 mb)
Calm -
08:34
Overcast
39°F / 4°C 37°F / 3°C 93% 30.15 in
(1021 mb)
Calm -
07:51
Overcast
39°F / 4°C 37°F / 3°C 93% 30.12 in
(1020 mb)
SE 4.6 mph
(SE 7 kph)
0.00 in
(0.00 mm)
10SM
07:47
Overcast
39°F / 4°C 37°F / 3°C 93% 30.12 in
(1020 mb)
SE 4.6 mph
(SE 7 kph)
0.00 in
(0.00 mm)
10SM
07:21
Overcast
Light Rain
39°F / 4°C 37°F / 3°C 93% 30.12 in
(1020 mb)
SSE 5.8 mph
(SSE 9 kph)
0.00 in
(0.00 mm)
07:09
Overcast
Light Rain
39°F / 4°C 37°F / 3°C 93% 30.12 in
(1020 mb)
SSE 4.6 mph
(SSE 7 kph)
0.00 in
(0.00 mm)
06:51
Overcast
Light Rain
39°F / 4°C 37°F / 3°C 93% 30.12 in
(1020 mb)
S 4.6 mph
(S 7 kph)
0.01 in
(0.25 mm)
05:51
Overcast
41°F / 5°C 36°F / 2°C 81% 30.09 in
(1019 mb)
Calm - 10SM
04:51
Overcast
39°F / 4°C 36°F / 2°C 87% 30.09 in
(1019 mb)
E 3.5 mph
(E 6 kph)
- 10SM
03:51
Mostly Cloudy
39°F / 4°C 36°F / 2°C 87% 30.09 in
(1019 mb)
SE 6.9 mph
(SE 11 kph)
- 10SM
02:51
Overcast
39°F / 4°C 37°F / 3°C 93% 30.09 in
(1019 mb)
SE 3.5 mph
(SE 6 kph)
- 10SM
01:51
Overcast
39°F / 4°C 37°F / 3°C 93% 30.09 in
(1019 mb)
SE 5.8 mph
(SE 9 kph)
-
00:51
Overcast
37°F / 3°C 36°F / 2°C 93% 30.09 in
(1019 mb)
S 6.9 mph
(S 11 kph)
- 10SM
Time Weather Temperature Dewpoint Humidity Pressure Winds Precip Visibility


Weather for websites

WeatherForYou.com, LLC is not responsible for any damages or problems caused by this service. Current weather conditions are obtained from the closest station including government and personal stations which may have varying degrees of accuracy. Weather forecasts are derived from the NOAA NDFD. Like all things, this site belongs to Jesus Christ... He just trusts me to maintain it. If you have any questions or comments email webmaster@weatherforyou.com

Copyright © 2014, WeatherForYou.com LLC. All rights reserved.